| time (UTC) | temp F | wind direction | speed MPH | gust MPH | rain 1hr in | rain 24hr in | rain mn in | humidity % | barometer mb |
| 20260904171600 | 56 | 98 | 0.0 | 0.0 | 0.00 | 0.06 | 0.00 | 94 | 1014.7 |
| 20260904170059 | 54 | 92 | 0.0 | 0.0 | 0.00 | 0.06 | 0.00 | 93 | 1014.7 |
| 20260904164600 | 53 | 93 | 0.0 | 0.0 | 0.00 | 0.12 | 0.00 | 93 | 1014.7 |
| 20260904163057 | 52 | 92 | 0.0 | 0.0 | 0.00 | 0.12 | 0.00 | 93 | 1014.7 |
| 20260904161618 | 51 | 349 | 0.0 | 0.0 | 0.00 | 0.12 | 0.00 | 93 | 1014.7 |
| 20260904160057 | 51 | 349 | 0.0 | 0.0 | 0.00 | 0.12 | 0.00 | 93 | 1014.7 |
| 20260904154555 | 50 | 349 | 0.0 | 0.0 | 0.00 | 0.19 | 0.00 | 93 | 1014.7 |
| 20260904153056 | 49 | 349 | 0.0 | 0.0 | 0.00 | 0.19 | 0.00 | 93 | 1014.6 |
| 20260904151553 | 49 | 349 | 0.0 | 0.0 | 0.00 | 0.19 | 0.00 | 92 | 1014.5 |
| 20260904150058 | 49 | 349 | 0.0 | 0.0 | 0.00 | 0.19 | 0.00 | 92 | 1014.4 |
| 20260904144601 | 49 | 349 | 0.0 | 0.0 | 0.00 | 0.25 | 0.00 | 92 | 1014.2 |
| 20260904143053 | 49 | 349 | 0.0 | 0.0 | 0.00 | 0.25 | 0.00 | 92 | 1014.1 |
| 20260904141547 | 48 | 349 | 0.0 | 0.0 | 0.00 | 0.25 | 0.00 | 92 | 1013.9 |
| 20260904140055 | 48 | 349 | 0.0 | 0.0 | 0.00 | 0.25 | 0.00 | 92 | 1013.7 |
| 20260904134548 | 48 | 349 | 0.0 | 0.0 | 0.00 | 0.28 | 0.00 | 92 | 1013.6 |
| 20260904133041 | 48 | 349 | 0.0 | 0.0 | 0.00 | 0.28 | 0.00 | 92 | 1013.3 |
| 20260904131539 | 48 | 349 | 0.0 | 0.0 | 0.00 | 0.28 | 0.00 | 92 | 1013.2 |
| 20260904130037 | 49 | 349 | 0.0 | 0.0 | 0.00 | 0.28 | 0.00 | 91 | 1013.0 |
| 20260904124535 | 49 | 349 | 0.0 | 0.0 | 0.00 | 0.31 | 0.00 | 91 | 1012.9 |
| 20260904123033 | 49 | 349 | 0.0 | 0.0 | 0.00 | 0.31 | 0.00 | 91 | 1012.8 |
| 20260904121533 | 50 | 349 | 0.0 | 0.0 | 0.00 | 0.31 | 0.00 | 91 | 1012.8 |
| 20260904120031 | 50 | 349 | 0.0 | 0.0 | 0.00 | 0.31 | 0.00 | 91 | 1012.7 |
| 20260904114536 | 51 | 349 | 0.0 | 0.0 | 0.00 | 0.32 | 0.00 | 91 | 1012.7 |
| 20260904113032 | 51 | 349 | 0.0 | 0.0 | 0.00 | 0.32 | 0.00 | 91 | 1012.7 |
| 20260904111525 | 51 | 349 | 0.0 | 0.0 | 0.00 | 0.32 | 0.00 | 91 | 1012.7 |
| 20260904110023 | 52 | 349 | 0.0 | 0.0 | 0.00 | 0.32 | 0.00 | 91 | 1012.6 |
| 20260904104522 | 52 | 349 | 0.0 | 0.0 | 0.00 | 0.32 | 0.00 | 91 | 1012.6 |
| 20260904103020 | 53 | 349 | 0.0 | 0.0 | 0.00 | 0.32 | 0.00 | 91 | 1012.5 |
| 20260904101519 | 53 | 349 | 0.0 | 0.0 | 0.00 | 0.32 | 0.00 | 91 | 1012.5 |
| 20260904100017 | 53 | 349 | 0.0 | 0.0 | 0.00 | 0.32 | 0.00 | 91 | 1012.5 |
| 20260904094526 | 53 | 349 | 0.0 | 0.0 | 0.00 | 0.32 | 0.00 | 91 | 1012.4 |
| 20260904093013 | 54 | 349 | 0.0 | 0.0 | 0.00 | 0.32 | 0.00 | 91 | 1012.3 |
| 20260904091511 | 54 | 349 | 0.0 | 0.0 | 0.00 | 0.32 | 0.00 | 91 | 1012.4 |
| 20260904090009 | 55 | 349 | 0.0 | 0.0 | 0.00 | 0.32 | 0.00 | 91 | 1012.4 |
| 20260904084508 | 56 | 349 | 0.0 | 0.0 | 0.00 | 0.32 | 0.00 | 91 | 1012.4 |
| 20260904083007 | 56 | 323 | 0.0 | 4.0 | 0.00 | 0.32 | 0.00 | 91 | 1012.4 |
| 20260904081507 | 55 | 325 | 0.0 | 6.0 | 0.00 | 0.32 | 0.00 | 91 | 1012.4 |
| 20260904080006 | 55 | 298 | 0.0 | 4.0 | 0.00 | 0.32 | 0.00 | 91 | 1012.3 |
| 20260904074504 | 55 | 340 | 0.0 | 3.0 | 0.00 | 0.32 | 0.00 | 91 | 1012.3 |
| 20260904073002 | 56 | 342 | 0.0 | 3.0 | 0.00 | 0.32 | 0.00 | 91 | 1012.3 |
| 20260904071500 | 56 | 163 | 0.0 | 0.0 | 0.00 | 0.32 | 0.00 | 91 | 1012.2 |
| 20260904070059 | 56 | 163 | 0.0 | 0.0 | 0.00 | 0.32 | 0.00 | 91 | 1012.2 |
| 20260904064620 | 57 | 163 | 0.0 | 0.0 | 0.00 | 0.32 | 0.32 | 90 | 1012.2 |
| 20260904063117 | 58 | 163 | 0.0 | 0.0 | 0.00 | 0.32 | 0.32 | 90 | 1012.2 |
| 20260904061557 | 58 | 163 | 0.0 | 0.0 | 0.00 | 0.32 | 0.32 | 90 | 1012.2 |
| 20260904060110 | 59 | 163 | 0.0 | 0.0 | 0.00 | 0.32 | 0.32 | 90 | 1012.2 |
| 20260904054557 | 59 | 186 | 0.0 | 3.0 | 0.00 | 0.32 | 0.32 | 89 | 1012.3 |
| 20260904053056 | 59 | 342 | 0.0 | 3.0 | 0.00 | 0.32 | 0.32 | 89 | 1012.5 |
| 20260904051556 | 60 | 40 | 0.0 | 2.0 | 0.00 | 0.32 | 0.32 | 89 | 1012.4 |
| 20260904050058 | 60 | 157 | 0.0 | 2.0 | 0.00 | 0.32 | 0.32 | 89 | 1012.4 |
| 20260904044555 | 60 | 163 | 0.0 | 4.0 | 0.00 | 0.32 | 0.32 | 88 | 1012.5 |
| 20260904043100 | 60 | 179 | 1.0 | 4.0 | 0.00 | 0.32 | 0.32 | 89 | 1012.4 |
| 20260904041554 | 60 | 350 | 0.0 | 1.0 | 0.00 | 0.32 | 0.32 | 89 | 1012.3 |
| 20260904040054 | 60 | 344 | 0.0 | 3.0 | 0.00 | 0.32 | 0.32 | 89 | 1012.4 |
| 20260904034554 | 60 | 204 | 0.0 | 0.0 | 0.00 | 0.32 | 0.32 | 89 | 1012.3 |
| 20260904033052 | 60 | 204 | 0.0 | 3.0 | 0.00 | 0.32 | 0.32 | 89 | 1012.1 |
| 20260904031552 | 60 | 202 | 0.0 | 0.0 | 0.00 | 0.32 | 0.32 | 89 | 1012.0 |
| 20260904030052 | 60 | 202 | 0.0 | 3.0 | 0.00 | 0.32 | 0.32 | 89 | 1012.0 |
| 20260904024600 | 60 | 146 | 0.0 | 3.0 | 0.00 | 0.32 | 0.32 | 89 | 1012.0 |
| 20260904023052 | 61 | 360 | 0.0 | 4.0 | 0.00 | 0.32 | 0.32 | 90 | 1012.0 |
| 20260904021554 | 61 | 193 | 0.0 | 2.0 | 0.00 | 0.32 | 0.32 | 90 | 1012.1 |
| 20260904020048 | 60 | 194 | 0.0 | 6.0 | 0.00 | 0.32 | 0.32 | 90 | 1012.2 |
| 20260904014552 | 60 | 218 | 0.0 | 3.0 | 0.00 | 0.32 | 0.32 | 90 | 1012.4 |
| 20260904013106 | 60 | 180 | 0.0 | 3.0 | 0.00 | 0.32 | 0.32 | 90 | 1012.4 |
| 20260904011548 | 60 | 180 | 0.0 | 4.0 | 0.00 | 0.32 | 0.32 | 90 | 1012.4 |
| 20260904010045 | 61 | 200 | 0.0 | 4.0 | 0.00 | 0.32 | 0.32 | 90 | 1012.4 |
| 20260904004544 | 61 | 192 | 0.0 | 5.0 | 0.00 | 0.32 | 0.32 | 90 | 1012.4 |
| 20260904003044 | 61 | 207 | 0.0 | 3.0 | 0.00 | 0.32 | 0.32 | 91 | 1012.5 |
| 20260904001557 | 61 | 199 | 0.0 | 5.0 | 0.00 | 0.32 | 0.32 | 91 | 1012.6 |
| 20260904000041 | 61 | 147 | 0.0 | 6.0 | 0.00 | 0.32 | 0.32 | 90 | 1012.7 |
| 20260903234539 | 62 | 191 | 0.0 | 4.0 | 0.01 | 0.32 | 0.32 | 90 | 1013.0 |
| 20260903233043 | 62 | 169 | 1.0 | 4.0 | 0.01 | 0.32 | 0.32 | 89 | 1013.0 |
| 20260903231540 | 62 | 177 | 0.0 | 2.0 | 0.01 | 0.32 | 0.32 | 88 | 1013.2 |
| 20260903230036 | 63 | 327 | 1.0 | 5.0 | 0.01 | 0.32 | 0.32 | 86 | 1013.3 |
| 20260903224540 | 63 | 180 | 0.0 | 4.0 | 0.00 | 0.31 | 0.31 | 84 | 1013.4 |
| 20260903223033 | 64 | 203 | 2.0 | 7.0 | 0.00 | 0.31 | 0.31 | 81 | 1013.4 |
| 20260903221534 | 65 | 228 | 0.0 | 8.0 | 0.00 | 0.31 | 0.31 | 76 | 1013.4 |
| 20260903220033 | 66 | 175 | 3.0 | 9.0 | 0.00 | 0.31 | 0.31 | 76 | 1013.5 |
| 20260903214537 | 66 | 220 | 0.0 | 7.0 | 0.00 | 0.31 | 0.31 | 77 | 1013.5 |
| 20260903213042 | 66 | 123 | 0.0 | 5.0 | 0.00 | 0.31 | 0.31 | 76 | 1013.5 |
| 20260903211531 | 67 | 163 | 0.0 | 7.0 | 0.00 | 0.31 | 0.31 | 78 | 1013.5 |
| 20260903210030 | 67 | 172 | 1.0 | 9.0 | 0.00 | 0.31 | 0.31 | 77 | 1013.5 |
| 20260903204528 | 67 | 169 | 0.0 | 7.0 | 0.00 | 0.31 | 0.31 | 80 | 1013.6 |
| 20260903203024 | 66 | 216 | 3.0 | 7.0 | 0.00 | 0.31 | 0.31 | 81 | 1013.6 |
| 20260903201524 | 66 | 153 | 0.0 | 7.0 | 0.00 | 0.31 | 0.31 | 83 | 1013.7 |
| 20260903200021 | 66 | 147 | 1.0 | 7.0 | 0.00 | 0.31 | 0.31 | 86 | 1013.8 |
| 20260903194518 | 65 | 248 | 1.0 | 5.0 | 0.00 | 0.31 | 0.31 | 89 | 1014.0 |
| 20260903193017 | 62 | 55 | 0.0 | 2.0 | 0.00 | 0.31 | 0.31 | 90 | 1014.2 |
| 20260903191523 | 61 | 249 | 0.0 | 7.0 | 0.00 | 0.31 | 0.31 | 92 | 1014.3 |
| 20260903190014 | 62 | 143 | 0.0 | 4.0 | 0.00 | 0.31 | 0.31 | 93 | 1014.4 |
| 20260903184511 | 61 | 293 | 1.0 | 6.0 | 0.01 | 0.31 | 0.31 | 93 | 1014.5 |
| 20260903183020 | 61 | 221 | 0.0 | 8.0 | 0.02 | 0.31 | 0.31 | 93 | 1014.6 |
| 20260903181508 | 61 | 244 | 1.0 | 8.0 | 0.04 | 0.31 | 0.31 | 93 | 1014.6 |
| 20260903180015 | 60 | 219 | 3.0 | 13.0 | 0.05 | 0.31 | 0.31 | 93 | 1014.5 |
| 20260903174508 | 61 | 173 | 0.0 | 8.0 | 0.05 | 0.30 | 0.30 | 94 | 1014.4 |
| 20260903173009 | 61 | 197 | 0.0 | 8.0 | 0.06 | 0.28 | 0.28 | 94 | 1014.4 |